Theta_e
346 335 321 323 323 326 326 329 331 327 326 326 326 326 327 326 326 326 326 328 330 331 332 333 332 331 330 329 328 328 326 324 326 328 331 333 325 318 316 316 316 314 314 314 313 313 313 314 316 319 322 324 325 326 326 327 327 327 328 328 328 327 325 324 325 325 325 324 323 323 322 323 322 322 322 322 324 325 327 330 330 325 322 322 321
347 334 319 322 321 325 326 328 330 328 325 325 325 326 326 326 326 326 327 328 329 331 332 334 333 332 330 330 329 328 326 322 321 323 326 332 327 318 317 316 315 314 314 314 313 313 313 314 317 321 322 323 325 326 328 328 328 328 328 328 329 329 327 326 326 328 329 329 327 324 322 323 324 323 323 323 322 323 323 324 325 322 321 321 321
344 331 319 321 321 324 324 326 329 328 326 326 325 326 326 326 326 326 327 327 328 329 330 332 332 331 330 329 328 328 327 323 321 321 322 330 328 315 317 317 315 314 314 314 313 313 313 315 318 321 322 324 326 327 328 328 329 329 329 329 329 330 330 329 328 330 332 332 332 330 324 321 324 324 324 324 323 323 321 321 321 321 322 322 322
337 324 321 321 321 323 323 324 327 327 326 325 325 326 326 325 325 325 327 327 327 327 328 329 329 330 329 329 328 328 328 327 325 325 321 327 331 315 317 318 314 315 314 314 314 313 313 315 319 321 323 324 327 328 329 328 329 329 329 329 329 330 331 331 330 332 333 333 333 333 330 321 321 324 324 324 323 323 322 321 322 322 322 323 323
329 320 322 320 322 323 323 323 325 327 325 325 325 326 325 325 324 325 326 326 327 326 327 326 327 328 328 329 329 329 328 329 327 328 323 325 331 317 317 319 314 315 314 314 314 313 313 315 319 321 323 325 327 328 329 328 328 329 329 329 330 331 331 332 332 333 334 334 333 334 333 325 318 321 323 324 323 323 323 322 322 323 323 324 325
325 321 322 319 322 321 323 323 324 326 325 325 324 326 325 324 324 325 325 325 325 324 324 323 325 326 327 327 327 328 327 330 328 328 322 320 330 320 317 321 315 314 314 314 314 314 313 315 318 321 323 325 327 328 328 328 328 328 329 330 330 331 331 332 332 333 335 335 335 334 335 330 320 318 322 324 325 325 325 325 324 324 324 326 327
323 321 321 319 321 320 322 322 323 325 326 325 325 326 325 324 324 324 324 324 324 322 321 318 319 321 323 324 324 326 326 329 330 331 322 317 329 324 319 323 318 314 314 314 314 314 313 314 317 320 323 324 326 327 327 327 328 328 328 330 330 331 331 332 332 333 335 335 336 336 335 334 324 317 322 324 327 328 328 329 327 326 326 326 328
326 320 321 320 320 319 321 321 322 324 325 325 325 326 325 325 323 322 323 324 323 319 316 313 312 314 317 319 320 322 324 329 332 333 323 317 329 328 323 326 321 314 313 314 314 314 313 314 316 319 322 323 325 325 326 327 329 329 328 329 329 330 331 333 333 334 336 336 337 338 336 335 327 318 322 325 327 329 331 332 329 327 327 326 327
330 321 323 321 320 320 320 320 322 323 324 325 325 327 327 326 322 321 322 323 321 316 313 310 309 308 311 314 316 318 322 330 333 334 326 320 329 330 326 328 323 315 313 314 314 314 313 314 315 318 321 322 324 324 325 327 329 329 328 328 328 330 331 333 335 335 336 336 336 336 336 336 330 320 321 326 327 329 330 331 330 328 328 326 325
334 325 325 322 320 319 319 320 321 322 324 324 325 327 328 327 322 321 322 321 318 315 311 309 309 308 309 311 318 320 321 330 334 334 330 324 328 330 327 328 324 315 313 314 314 314 313 313 314 317 320 321 322 324 326 327 328 328 327 326 327 329 333 334 335 335 336 337 336 333 332 333 329 323 322 325 328 329 329 329 329 328 327 326 324
331 324 324 322 320 319 320 320 321 321 323 324 325 327 328 327 322 322 321 319 317 314 310 309 309 309 309 313 323 324 324 332 335 334 331 326 328 328 326 326 323 315 313 314 314 314 313 313 314 316 319 320 321 322 324 326 328 327 326 325 326 330 333 334 335 336 336 338 338 335 334 329 326 327 327 326 328 329 329 328 328 327 326 325 323
326 321 323 322 319 319 320 320 320 321 323 323 325 327 328 327 322 322 321 319 317 313 310 309 309 309 310 313 322 327 330 335 335 334 331 326 326 325 325 325 322 315 313 314 313 314 313 313 313 315 318 319 319 320 322 324 326 325 324 323 324 330 333 334 335 335 335 338 337 337 335 328 326 329 330 328 328 328 328 327 327 326 324 323 322
328 322 323 322 319 319 320 321 321 321 323 323 325 327 328 327 323 322 321 319 316 312 310 310 309 310 310 312 319 324 329 334 334 334 330 325 324 323 323 324 320 314 313 314 313 314 313 313 313 315 317 318 317 318 320 322 322 320 320 321 324 331 334 333 335 335 336 338 337 336 332 326 326 329 330 330 328 329 328 327 327 326 323 321 320
326 321 322 321 320 319 320 321 321 322 322 323 325 327 329 327 324 323 322 320 316 311 310 309 310 311 310 312 315 320 327 332 333 333 328 323 322 322 323 323 318 313 313 313 313 314 313 313 313 314 316 317 316 316 317 318 318 316 317 320 324 330 334 335 335 335 336 337 337 337 330 324 327 328 329 331 329 329 329 328 327 325 322 320 319
324 320 321 320 319 319 320 320 322 322 322 324 326 327 328 328 325 324 322 321 317 310 309 309 309 310 311 312 314 318 325 331 332 332 327 322 321 321 322 320 315 313 314 313 313 313 313 313 313 314 316 316 315 315 314 315 314 314 316 320 325 331 335 336 335 335 336 336 337 337 330 324 327 328 329 331 330 330 329 329 327 325 324 322 320
327 322 322 321 319 320 321 320 322 323 322 324 327 327 328 328 327 326 324 321 316 311 309 309 309 310 312 314 317 318 322 329 333 331 325 320 320 320 319 316 313 313 313 313 313 313 313 313 313 314 316 316 315 314 313 313 312 314 317 322 327 331 335 336 335 335 335 336 336 335 331 326 327 327 329 332 331 330 330 330 328 326 325 324 321
326 324 325 323 320 322 324 321 323 324 324 326 327 328 328 329 328 327 326 322 316 312 309 309 309 310 315 320 321 321 323 327 330 330 325 320 319 318 316 314 313 313 313 313 313 313 313 312 313 314 316 316 316 315 314 313 312 315 319 323 328 331 334 336 335 336 335 335 336 333 330 327 327 328 330 332 331 330 330 330 328 327 326 325 322
323 325 329 330 326 325 326 324 323 325 329 332 329 328 329 329 329 328 327 323 317 314 311 309 309 309 318 325 324 326 331 330 328 330 327 321 318 317 315 314 313 313 313 313 313 313 313 313 313 314 316 316 316 316 314 313 312 317 322 325 329 332 335 337 335 335 333 333 335 333 329 328 329 330 331 331 331 331 330 330 328 327 327 326 322
321 330 335 335 333 331 333 332 325 326 334 337 332 327 328 329 330 329 328 325 319 316 314 309 309 309 314 321 324 329 335 334 330 329 329 324 319 316 314 314 313 313 313 313 313 313 312 313 313 314 316 317 317 316 314 312 314 319 323 327 331 332 335 336 333 333 333 334 335 332 329 330 330 331 332 331 332 331 329 329 328 326 327 326 322
325 336 339 334 334 332 335 336 328 328 337 339 336 331 329 330 331 331 330 329 325 320 316 312 309 309 310 315 323 330 333 334 332 330 331 327 322 318 314 314 313 313 313 313 313 313 312 312 312 313 316 317 317 316 314 312 316 321 324 329 332 330 333 335 333 334 334 333 333 331 329 330 330 331 331 331 332 331 329 329 327 326 326 324 320
328 335 339 333 336 336 334 338 334 332 337 339 339 336 332 330 332 332 331 333 332 325 319 314 310 308 310 310 319 331 333 332 333 332 332 331 326 320 315 313 313 313 313 313 313 312 313 312 312 313 315 317 317 316 314 314 317 322 326 331 333 331 333 334 334 334 333 333 331 329 329 330 330 331 332 331 332 331 330 329 327 325 324 321 316
331 334 338 334 337 340 339 341 339 337 337 338 340 338 335 332 334 335 333 333 335 330 323 317 312 308 309 309 315 328 334 332 332 333 333 333 330 321 316 314 312 313 313 313 313 313 313 312 312 313 315 317 316 316 315 316 318 323 327 329 331 333 334 334 334 333 331 332 331 328 328 329 329 331 331 331 331 330 329 328 326 323 322 319 311
338 338 340 339 339 341 342 341 341 341 338 339 341 341 337 334 336 339 335 334 336 334 330 327 324 318 311 307 314 326 333 332 330 333 334 333 332 324 319 315 313 314 313 313 312 313 312 312 313 312 315 316 315 322 325 324 321 323 327 328 331 335 334 332 332 332 331 332 330 326 325 327 328 329 331 330 329 328 327 325 323 322 321 316 307
342 342 342 342 343 342 342 341 342 342 340 340 342 342 339 335 337 339 337 335 336 336 335 334 332 330 319 308 318 326 331 332 329 333 335 333 333 327 321 316 314 313 312 314 313 313 313 312 313 313 315 314 319 330 333 333 331 327 329 332 335 337 335 331 332 332 332 332 328 323 323 325 326 328 329 328 326 325 324 322 321 321 318 310 303
343 343 342 342 343 342 342 342 343 341 340 342 342 342 340 338 338 340 339 336 337 337 337 336 334 335 329 321 328 330 330 334 330 332 334 333 334 332 326 319 316 314 312 314 312 313 312 312 313 311 313 317 325 332 331 335 336 332 332 335 335 336 335 331 332 332 331 332 327 324 326 326 326 328 328 327 324 322 321 320 319 317 311 304 302
344 344 343 342 343 343 342 342 343 341 341 342 341 342 342 340 340 341 341 339 339 338 337 336 334 335 334 331 333 331 331 334 331 332 335 333 334 334 331 326 323 319 315 312 315 317 313 317 322 317 318 325 329 330 329 332 333 333 333 334 334 336 336 332 332 332 331 332 328 326 328 327 326 326 326 325 322 320 319 318 315 309 304 302 302
346 346 345 344 344 344 343 342 343 341 341 342 341 341 341 340 341 341 340 340 340 340 337 335 334 334 334 333 334 332 331 334 331 330 335 334 333 334 332 332 331 328 322 316 325 330 321 324 331 327 327 330 329 329 330 330 331 332 332 334 336 336 336 333 331 331 332 332 330 328 328 328 326 325 323 322 320 319 317 314 308 303 302 302 302
347 347 346 345 344 344 343 343 342 342 341 342 341 341 341 341 342 340 339 341 340 340 338 334 335 334 334 334 333 332 330 334 330 325 332 334 333 335 333 334 334 334 330 324 332 336 329 329 332 331 331 329 329 329 330 331 331 331 332 336 337 335 335 334 331 330 331 332 332 329 329 328 325 324 323 322 320 318 313 307 303 302 302 302 301
348 348 347 345 344 343 343 342 342 342 342 341 341 340 341 341 342 341 340 342 341 340 337 334 335 333 333 333 331 330 331 335 330 325 331 332 332 334 334 335 334 336 333 330 335 334 331 331 331 331 330 328 329 330 330 331 331 331 333 336 336 334 334 334 333 332 332 333 333 330 328 327 324 323 322 322 319 313 307 302 302 302 302 301 301
348 347 346 344 344 343 342 342 342 342 341 341 340 340 340 341 342 341 341 342 340 339 336 335 335 333 330 327 327 328 330 334 331 328 328 328 331 330 333 333 332 337 333 330 335 333 331 332 331 331 328 328 329 331 331 330 331 332 335 336 336 335 334 334 333 333 333 333 332 329 328 326 323 323 322 320 314 306 302 302 302 302 301 301 301
348 346 345 343 341 341 342 342 342 342 341 341 340 340 339 340 342 341 341 341 340 338 336 335 334 333 327 318 321 324 328 333 329 326 324 324 327 322 326 328 327 332 328 329 335 334 333 332 331 330 328 329 329 331 332 330 333 334 335 336 334 334 334 333 333 332 332 331 330 327 326 325 323 322 321 315 308 302 302 302 301 301 301 301 300
348 345 344 342 340 340 342 341 342 341 342 342 340 340 339 339 340 340 340 339 340 338 336 336 331 331 327 311 314 319 326 332 323 320 320 319 319 313 317 321 322 322 321 330 332 329 333 332 331 331 329 331 330 332 332 332 334 333 334 335 333 333 333 333 332 332 331 330 329 327 325 324 323 321 317 310 303 301 302 301 301 301 301 300 300
348 347 343 342 340 340 341 341 341 341 341 342 340 339 339 339 339 339 340 338 339 337 336 336 327 328 325 307 310 313 317 325 318 316 318 316 316 312 314 316 319 316 315 326 322 319 330 333 332 333 332 332 331 333 333 334 334 332 332 334 334 333 332 333 332 331 331 329 328 327 325 324 323 319 311 304 302 301 301 301 301 301 301 300 300
348 348 345 343 341 340 341 341 341 341 340 340 340 339 338 339 339 339 340 338 338 336 336 335 326 328 325 306 310 312 311 318 316 317 320 321 319 316 318 318 320 317 312 318 313 313 325 331 332 333 334 333 334 336 333 333 334 332 331 333 334 332 332 332 331 331 330 328 327 326 325 324 323 321 312 302 301 302 301 301 301 301 301 300 300
344 346 345 343 341 340 340 340 340 340 340 339 339 339 338 339 338 338 339 337 337 336 337 334 326 330 327 307 310 313 312 317 319 321 324 326 324 323 326 324 325 325 323 324 321 319 324 331 333 334 336 334 335 336 332 332 334 333 333 334 333 332 332 331 330 331 329 328 326 325 325 323 323 323 317 306 301 301 301 301 301 300 300 300 300
335 340 343 343 342 341 339 340 340 340 339 339 339 339 338 339 338 338 338 337 338 336 337 334 327 333 331 313 309 313 315 319 322 326 327 330 331 330 332 331 331 332 333 334 333 332 331 334 335 335 336 336 336 335 333 333 333 334 335 334 333 331 331 330 330 330 327 326 325 325 324 322 322 321 319 315 306 301 301 301 300 300 300 300 300
331 333 337 340 341 340 339 340 340 339 339 339 339 339 338 338 338 338 338 338 338 336 337 335 329 333 334 321 313 312 319 325 327 329 328 331 334 336 337 335 334 334 335 336 336 337 337 337 336 335 335 336 336 335 334 334 332 334 335 334 333 331 331 331 330 329 327 325 324 324 323 322 323 318 318 320 313 303 301 301 300 300 300 299 299
335 334 334 336 340 340 339 340 340 340 339 339 339 339 338 338 338 338 338 338 338 337 337 336 331 332 335 331 322 314 320 332 334 331 328 331 334 338 340 337 335 334 334 336 335 336 339 338 335 334 334 335 336 334 334 334 332 334 335 333 332 331 331 331 330 329 327 324 323 322 322 324 322 314 315 320 318 310 303 300 300 300 300 299 299
335 336 336 335 339 341 340 341 342 341 339 339 340 340 338 338 338 338 338 337 337 338 338 337 332 331 335 336 332 321 321 333 336 332 328 330 335 339 340 337 335 334 333 334 334 336 338 337 334 333 334 335 336 335 334 334 334 335 334 333 332 331 331 331 330 329 326 324 323 322 322 322 319 313 312 317 318 315 308 302 302 305 304 299 298
328 331 336 337 339 341 342 342 342 341 340 340 340 341 339 338 338 337 337 337 338 338 338 337 332 331 333 337 336 327 325 334 336 333 329 329 335 339 338 337 335 334 333 334 334 335 336 334 333 333 333 335 335 335 334 334 334 334 333 331 331 331 331 331 330 328 325 324 323 323 321 319 317 313 310 312 316 315 311 305 307 313 309 302 300
326 328 332 335 337 340 342 342 341 342 341 341 341 341 340 339 338 337 338 338 338 338 338 338 333 330 331 336 336 330 329 334 336 333 329 327 333 338 339 337 335 333 333 333 333 335 335 334 334 334 334 335 336 335 334 333 333 332 331 331 331 330 331 331 331 328 326 324 322 322 320 318 316 314 310 310 310 310 308 306 310 314 311 306 304
328 326 329 334 336 340 343 342 341 342 342 341 340 341 341 339 338 338 338 337 338 338 338 339 336 330 330 334 333 329 327 332 335 334 330 328 332 336 338 338 335 333 333 333 333 334 335 335 335 334 334 335 336 336 333 333 333 332 331 331 331 331 331 331 330 329 326 324 322 321 321 319 316 315 312 308 306 306 307 307 310 312 310 309 308
327 327 333 338 337 339 343 343 342 342 343 342 339 341 341 339 338 338 338 338 338 339 339 339 338 333 332 334 331 326 324 329 335 334 328 328 332 334 337 337 335 334 333 333 334 334 335 335 335 335 335 335 336 335 334 333 333 333 332 332 331 330 330 329 328 328 326 324 323 322 321 319 316 315 313 309 307 308 309 309 309 309 307 307 309
328 330 336 338 334 337 341 343 343 343 344 342 339 341 341 339 339 338 339 339 339 339 339 339 339 336 335 335 333 325 320 326 335 334 326 325 331 334 335 336 336 334 333 333 334 334 335 336 336 335 335 335 335 335 333 331 333 334 333 332 331 330 330 329 328 327 326 325 323 322 321 320 316 314 313 312 310 310 310 310 310 308 304 302 306
326 330 334 334 332 334 335 340 344 345 344 342 340 340 341 340 339 339 339 339 340 339 339 340 340 339 337 336 335 328 319 324 332 333 330 327 328 333 335 336 335 334 331 332 334 335 335 335 336 335 334 334 335 335 333 330 332 334 333 332 331 330 330 330 329 328 326 325 324 322 322 321 317 314 314 312 311 311 310 309 309 308 304 301 302
324 326 329 331 332 332 330 335 344 346 345 343 340 340 341 339 339 339 340 339 340 340 340 340 340 340 338 336 336 332 325 326 328 330 335 332 328 330 333 334 334 334 330 329 333 335 334 335 336 335 333 333 334 335 334 330 331 333 332 332 331 331 330 329 329 328 326 325 324 323 322 322 319 316 314 313 312 312 311 310 309 309 307 303 303
324 324 325 327 330 330 328 332 341 346 347 345 342 340 340 339 338 340 341 339 341 341 340 340 340 340 339 337 337 335 332 331 328 329 336 335 327 326 330 333 334 334 329 328 332 334 334 335 335 335 334 333 334 334 335 333 331 332 332 332 331 331 330 329 329 329 327 325 324 323 321 321 320 318 316 314 313 312 311 311 310 310 309 307 306
327 323 324 324 326 327 327 331 339 344 347 346 343 341 340 339 339 340 342 340 340 341 340 339 340 341 340 338 337 337 336 334 330 330 335 333 327 325 327 332 335 336 332 329 331 333 334 336 335 335 334 333 334 334 335 335 333 333 332 332 332 331 330 330 330 329 329 328 325 323 322 321 320 319 318 315 313 313 312 311 311 310 310 310 309
335 324 322 325 324 326 327 329 331 339 346 347 343 340 340 340 340 340 341 341 340 341 341 339 340 341 341 339 338 338 338 337 333 334 336 333 330 327 326 330 334 336 335 331 331 333 334 335 335 335 334 334 334 334 334 335 334 333 333 332 332 331 330 329 329 329 329 329 327 325 323 321 320 320 320 318 315 313 312 312 311 310 311 311 310
342 331 323 326 326 327 328 327 326 334 343 346 341 339 340 342 342 340 339 341 341 341 341 339 339 341 342 340 339 339 339 338 337 338 338 335 333 330 327 330 333 334 335 334 333 333 334 334 335 335 335 335 335 334 334 334 334 334 333 332 331 330 329 329 328 328 328 329 328 326 325 323 321 321 321 320 317 314 313 313 311 310 311 311 310
345 341 332 328 328 327 326 327 326 328 336 337 336 338 339 341 343 341 338 339 341 343 342 339 339 341 342 341 340 340 339 340 338 339 339 336 334 332 328 330 332 333 335 334 333 334 335 334 335 335 334 335 335 334 334 334 334 334 333 332 331 330 329 329 329 328 327 328 328 327 326 324 323 323 321 320 318 315 313 313 311 310 311 311 311
Wind_Speed
19 19 19 19 19 19 17 16 14 12 12 12 11 11 10 9 10 11 12 12 13 13 12 12 13 13 13 12 11 10 10 10 10 9 9 9 11 13 13 14 15 16 16 16 16 16 16 15 14 14 13 13 14 15 16 16 17 18 19 20 20 20 19 18 18 19 22 24 25 24 23 22 22 22 22 22 22 20 19 17 14 17 19 20 20
23 21 20 20 20 19 18 16 14 13 11 12 11 11 10 9 9 10 12 13 13 13 13 13 13 13 13 12 11 10 10 9 9 9 9 9 11 13 14 14 15 16 16 16 15 15 15 14 14 14 13 13 13 14 15 16 17 17 18 19 19 19 19 18 16 18 20 22 23 23 23 22 22 21 22 22 22 21 20 18 17 18 19 20 20
25 22 21 20 20 20 18 17 15 13 12 11 11 11 10 9 9 10 12 13 13 13 13 13 13 13 13 12 11 10 9 9 9 9 9 9 10 13 14 14 15 16 15 15 15 14 14 14 13 14 12 12 12 13 14 15 15 16 17 17 17 18 18 17 16 17 20 21 20 20 22 22 21 21 21 21 21 20 20 19 18 18 19 19 19
24 22 22 21 21 20 19 18 16 14 13 12 11 11 10 9 9 10 11 12 13 12 12 12 12 12 12 12 11 10 10 9 9 9 9 10 11 14 15 15 15 15 15 15 14 14 13 13 13 13 12 11 11 12 12 13 14 14 15 16 16 16 17 16 15 18 21 21 19 18 18 20 20 19 20 19 20 19 19 19 18 18 18 18 18
23 22 22 22 22 21 20 18 17 15 13 12 11 11 10 9 9 10 10 11 11 11 11 11 12 12 12 12 12 11 10 9 8 9 10 12 12 14 15 14 15 15 15 14 14 13 13 12 13 13 12 11 10 11 11 12 13 13 13 14 14 15 16 15 14 17 20 19 19 18 14 17 19 17 17 17 18 18 18 18 18 17 17 18 18
22 22 21 21 23 21 20 18 17 16 14 13 12 11 10 9 8 8 9 9 10 10 10 9 10 11 12 12 12 12 11 9 9 9 11 13 14 14 15 14 14 14 14 14 13 13 12 12 12 12 11 10 10 9 10 11 12 12 12 12 13 14 15 15 14 16 19 18 17 16 11 13 17 16 15 15 16 17 17 18 18 18 17 17 16
21 21 22 21 22 22 21 19 17 16 15 14 13 12 11 10 8 7 7 8 9 9 9 8 9 10 12 12 13 13 12 11 10 9 11 15 14 14 14 14 14 14 14 14 13 12 11 11 11 11 11 10 9 9 9 11 11 11 11 11 11 12 13 14 15 16 18 18 14 12 11 11 14 16 14 14 15 15 16 17 17 17 17 16 15
22 22 23 21 21 21 21 19 17 16 15 15 14 13 12 11 9 8 8 8 9 9 9 8 8 10 11 12 13 14 14 13 11 9 11 15 15 15 14 14 14 14 14 14 13 12 11 10 10 10 10 9 8 8 9 10 9 9 9 10 10 11 13 14 15 17 19 17 11 10 10 10 12 14 13 14 15 15 15 15 16 16 16 16 15
22 22 23 22 21 21 21 20 18 16 15 15 14 14 13 12 10 9 9 9 9 9 9 9 9 10 11 12 13 15 17 15 12 10 12 16 15 14 14 14 15 15 14 14 13 12 11 10 10 9 8 8 7 7 8 8 8 8 8 9 9 10 12 14 15 16 17 14 9 11 11 9 10 12 12 13 15 15 15 14 13 15 15 15 15
24 23 23 22 22 22 21 20 19 17 16 15 15 14 14 12 11 10 10 11 11 10 9 9 10 11 12 13 14 16 19 15 13 11 12 16 15 15 14 15 16 16 15 14 13 12 11 10 9 8 7 6 6 6 6 7 6 6 7 8 8 9 10 13 14 14 16 12 8 11 11 8 8 10 11 13 14 14 14 13 12 13 14 14 15
25 24 22 21 23 22 21 20 19 17 16 15 15 14 14 12 11 11 11 11 11 10 9 10 11 12 14 14 14 17 19 15 13 12 13 16 16 16 15 16 17 16 15 14 13 12 11 10 9 8 7 6 5 4 5 5 5 5 6 7 8 9 10 12 12 12 14 10 7 11 10 8 8 9 10 12 13 12 12 12 12 13 14 15 15
24 24 21 21 24 22 21 21 19 18 17 16 15 15 14 12 11 11 11 11 11 11 10 11 12 13 14 15 15 18 19 16 14 13 14 16 16 16 16 16 17 16 15 14 13 12 10 9 8 7 6 5 4 4 4 4 4 4 5 6 7 9 9 11 11 11 12 8 7 10 8 7 8 8 9 11 12 11 12 12 12 13 14 15 15
24 24 22 21 23 22 20 20 19 18 18 16 16 15 14 12 11 12 11 11 11 11 11 12 13 14 14 15 16 18 20 17 14 15 15 16 16 16 16 16 17 16 15 13 12 11 10 9 8 7 5 4 3 3 3 3 3 3 4 5 7 9 9 11 10 10 11 6 8 9 7 7 8 8 9 10 11 11 11 11 12 13 15 15 15
26 25 21 21 22 22 20 19 19 18 18 17 17 15 14 13 12 12 11 10 11 12 12 12 13 14 14 15 16 17 19 18 15 15 16 16 16 16 16 17 17 17 15 13 12 11 10 9 7 6 5 4 3 3 3 2 2 3 4 5 6 7 8 9 9 10 8 6 8 8 7 8 7 8 8 9 10 11 11 10 11 13 15 16 16
25 25 22 21 22 23 21 19 18 17 17 17 17 16 14 13 12 11 11 11 11 11 12 12 13 14 15 15 15 16 18 18 16 16 16 16 16 16 16 17 17 16 14 13 13 11 10 8 7 6 5 4 2 2 2 2 2 3 4 4 5 6 6 5 7 9 7 6 8 7 7 8 8 8 8 9 9 10 10 10 11 12 13 15 16
24 24 21 22 23 23 22 20 19 17 16 17 17 16 15 13 12 11 10 11 12 11 12 12 12 13 14 15 15 15 17 18 16 16 17 16 16 15 16 17 17 16 15 14 13 11 10 8 7 6 5 3 2 1 1 1 1 2 3 4 5 6 6 5 4 6 6 7 6 5 7 8 7 8 8 8 9 9 9 9 10 11 12 14 16
24 23 19 21 23 22 23 22 20 18 16 16 16 16 15 14 12 11 10 11 13 12 11 11 12 13 14 15 15 15 15 16 16 15 16 16 16 16 16 17 17 16 15 14 13 12 10 8 7 6 4 3 2 1 1 1 1 2 3 3 4 5 6 3 4 5 5 6 6 4 6 6 6 7 8 8 8 9 8 8 9 11 11 12 16
24 22 18 19 22 22 22 23 22 20 17 16 16 16 15 14 13 12 11 11 13 12 11 11 11 13 14 15 17 16 14 13 15 16 16 16 17 17 17 17 17 16 15 14 13 12 11 9 7 6 5 4 2 1 0 0 1 1 2 2 4 6 6 2 3 5 4 5 6 5 5 5 5 7 8 7 7 7 7 7 9 11 10 11 16
25 21 17 17 20 20 19 21 23 22 19 16 16 16 15 15 13 12 11 11 12 12 11 11 11 12 13 16 18 18 15 13 14 16 16 17 18 18 18 17 17 17 15 14 13 12 11 9 8 6 5 4 3 2 1 1 0 1 1 2 3 6 5 2 2 4 4 4 4 4 5 5 5 7 7 6 6 6 6 7 10 11 10 12 17
23 21 18 17 17 19 18 18 22 22 19 17 15 15 16 15 14 13 12 11 12 12 11 11 11 12 13 16 18 18 17 15 15 15 17 17 18 18 18 18 17 17 16 15 14 13 11 10 9 7 6 5 4 3 2 2 1 1 1 1 3 5 3 2 4 4 4 4 3 5 5 5 5 6 6 5 5 5 6 7 10 11 11 13 17
22 21 19 17 17 18 17 16 19 19 18 17 14 14 15 15 15 13 13 12 11 11 11 11 12 12 13 16 18 17 15 15 15 15 16 17 18 19 19 19 18 17 17 16 15 13 12 11 9 7 7 6 4 4 3 2 1 1 1 0 2 4 1 2 5 4 3 4 4 5 5 5 5 5 5 5 4 4 6 7 10 11 12 15 16
23 22 20 18 17 18 18 16 16 17 17 18 15 14 15 16 15 13 13 12 11 11 10 11 12 14 14 15 17 15 12 13 15 14 14 15 17 19 20 19 19 18 17 16 15 14 13 11 10 8 7 6 5 5 4 2 2 1 1 1 1 1 2 3 3 3 3 4 5 5 5 5 5 4 3 3 3 4 7 9 10 11 14 15 14
23 23 22 20 19 20 19 17 17 18 17 16 15 14 14 15 15 13 13 12 12 11 9 9 11 13 13 15 16 14 12 12 14 14 13 14 17 19 20 20 20 19 18 17 16 14 13 11 10 9 7 7 5 4 5 4 3 2 2 3 3 1 2 4 2 2 4 4 5 5 5 4 4 3 2 2 3 5 8 9 11 13 14 14 11
22 22 23 23 20 21 21 17 17 19 17 16 15 14 13 14 14 13 12 11 12 11 8 9 11 11 11 14 13 11 13 12 13 13 13 14 15 18 20 20 20 20 19 17 16 14 13 12 10 9 8 7 3 4 6 5 5 4 3 2 1 2 0 1 2 2 2 4 5 5 5 5 3 3 1 2 4 6 8 10 12 12 12 11 9
22 21 22 23 21 20 22 20 19 20 19 16 15 15 14 13 14 13 11 11 12 11 10 10 12 13 11 12 12 11 13 13 14 14 13 13 13 16 19 19 20 20 19 17 15 14 13 11 11 10 8 6 4 7 9 7 8 6 3 4 4 3 1 1 3 4 3 4 5 5 5 5 3 2 1 3 5 7 9 10 10 10 9 8 7
21 21 21 22 21 20 20 21 22 21 19 16 15 16 15 14 14 14 12 11 12 12 11 11 13 14 13 12 12 13 15 14 15 14 12 12 11 11 14 15 16 16 17 17 14 13 13 11 10 10 7 8 8 10 10 8 9 6 5 7 4 1 1 3 4 4 5 5 4 4 4 4 4 2 2 4 6 7 8 9 8 8 7 7 6
21 21 20 20 21 20 19 20 22 21 19 17 16 16 17 16 15 15 14 12 13 12 12 14 15 15 15 14 14 14 15 15 15 14 13 12 10 10 12 13 13 12 14 15 13 13 12 11 12 10 9 10 11 10 10 10 9 7 7 7 4 2 2 5 6 3 4 5 4 3 3 4 4 4 4 6 7 7 7 7 7 6 6 6 6
20 21 21 20 20 20 20 20 21 21 21 19 17 17 16 16 16 15 15 14 14 13 13 15 15 16 16 14 14 14 14 14 15 15 15 15 13 12 12 13 13 12 14 14 13 14 12 12 13 12 11 11 11 11 10 10 9 8 7 6 5 4 3 5 7 6 4 4 4 2 3 4 5 6 6 7 7 7 7 6 6 5 5 5 5
19 20 22 22 21 20 19 20 21 21 21 19 19 18 16 16 16 15 16 15 15 13 13 15 15 16 16 15 14 13 13 14 14 14 15 15 15 15 14 14 15 13 15 15 14 15 13 13 13 13 12 11 11 11 10 10 9 8 7 6 5 3 4 3 5 8 5 4 4 2 3 5 6 6 7 7 7 6 5 5 4 4 4 4 5
20 21 22 23 22 21 21 21 21 21 20 20 19 19 18 18 15 13 15 15 15 15 14 15 15 15 15 15 14 13 14 14 13 14 15 15 15 16 16 16 16 14 16 15 13 14 13 13 13 12 12 11 11 11 11 10 9 8 7 6 5 3 5 4 5 8 6 4 3 2 3 3 5 6 7 7 6 4 4 4 3 4 4 4 5
20 22 22 22 21 20 22 22 23 22 21 20 19 19 19 19 16 14 16 15 16 17 15 15 16 15 15 16 15 14 15 14 15 15 16 15 14 16 16 15 16 16 16 14 14 14 12 12 12 11 12 11 11 11 10 10 10 9 8 8 7 3 4 5 6 7 6 3 2 2 5 3 3 5 7 7 5 4 3 2 3 3 3 4 4
19 22 22 21 21 20 23 23 23 24 22 19 20 19 18 18 16 15 15 15 16 16 14 16 16 15 16 18 17 16 15 14 16 16 16 15 14 15 15 14 15 15 14 14 16 15 12 11 11 11 11 11 11 10 11 12 12 10 10 9 6 5 7 7 7 7 6 5 3 5 11 9 5 3 4 5 3 3 2 1 2 2 3 3 3
18 19 21 21 20 20 23 23 23 23 21 20 19 18 18 18 16 15 15 15 15 15 14 15 15 15 18 20 19 19 18 16 17 17 15 15 15 14 14 14 14 14 15 15 16 15 13 12 12 12 11 12 10 11 13 14 13 11 10 8 5 7 8 9 8 7 6 6 3 6 13 15 12 4 4 4 2 2 2 1 2 2 3 3 2
18 18 20 22 20 19 21 24 25 23 21 21 19 17 18 18 15 15 16 15 15 14 14 15 15 16 19 20 20 21 22 19 18 17 15 15 15 15 14 14 13 13 14 13 13 14 13 12 12 12 12 13 11 13 14 13 12 11 10 8 7 7 6 8 8 6 5 6 4 2 7 12 10 3 5 4 2 2 2 2 3 3 3 3 2
18 18 20 22 20 20 20 22 25 24 22 22 20 18 17 18 16 16 17 16 15 13 14 16 17 17 18 20 21 22 22 20 18 17 16 15 15 15 13 13 13 11 10 10 10 11 12 12 12 12 12 13 13 13 12 11 11 10 9 8 8 9 8 8 8 5 4 4 3 4 2 1 2 5 7 6 2 2 2 2 3 4 4 3 3
17 18 21 23 22 21 20 20 24 25 24 22 21 19 17 18 16 17 18 16 14 14 15 16 17 17 17 20 22 23 22 20 19 17 15 13 13 13 12 13 12 10 9 9 10 10 11 12 12 13 14 14 13 12 10 11 11 9 8 8 8 9 8 8 7 4 3 3 3 4 3 2 4 6 6 5 3 2 2 3 3 4 4 3 3
20 19 20 21 22 22 20 20 22 24 23 21 22 20 17 17 16 17 18 16 14 15 16 16 18 17 17 19 22 24 22 19 18 17 15 12 11 11 12 13 12 11 11 10 10 10 11 12 13 14 15 13 11 10 10 11 10 9 8 9 9 8 7 7 6 5 3 3 4 2 2 4 5 5 4 4 5 4 3 4 4 3 4 3 3
21 20 19 20 21 23 22 21 20 20 20 20 21 19 17 16 17 18 18 17 15 16 16 16 18 18 17 18 21 24 22 16 15 16 16 13 11 11 12 13 12 12 13 12 12 11 12 14 15 14 13 12 9 8 9 8 8 9 9 9 9 8 8 8 6 4 2 3 4 2 4 8 7 3 6 7 6 8 4 3 4 4 3 3 3
20 20 21 21 21 23 22 20 19 18 19 19 19 18 17 16 17 19 18 17 15 17 18 16 18 19 18 19 19 23 21 16 14 15 16 15 12 13 14 13 12 13 13 13 13 12 14 15 14 13 13 12 8 8 9 8 8 9 9 9 9 8 8 8 5 3 3 5 5 4 5 8 5 5 7 8 8 8 7 5 4 4 3 3 3
22 22 23 23 23 23 21 19 19 19 19 19 19 19 18 18 19 21 20 18 16 18 19 17 18 19 20 20 19 20 18 16 15 14 16 16 13 12 14 14 13 14 14 13 13 13 14 14 12 12 13 11 9 9 10 9 9 10 10 8 7 7 6 7 6 3 4 7 6 5 5 5 4 6 7 8 9 8 8 6 3 2 6 5 4
27 26 27 25 24 25 23 21 20 21 20 19 20 20 19 20 22 24 23 20 18 20 20 18 18 19 20 22 21 21 17 16 15 14 16 16 14 12 13 13 13 14 14 13 13 13 13 12 12 13 12 11 9 9 10 10 11 11 10 8 6 6 6 9 10 6 5 7 6 5 5 6 6 7 8 9 10 9 8 4 3 6 8 8 7
31 32 33 30 26 25 25 22 21 22 21 21 22 20 19 21 23 24 23 20 20 21 20 19 19 19 21 23 24 24 20 17 16 15 16 17 16 14 13 13 13 13 14 13 12 13 13 13 13 12 11 11 11 11 12 12 12 10 7 7 6 6 8 12 12 8 8 8 7 6 7 8 7 8 9 9 8 7 7 5 6 9 8 5 8
38 35 33 29 27 26 25 22 21 21 20 21 23 19 19 22 24 23 22 21 20 21 19 18 19 19 21 23 24 26 24 19 16 16 17 18 17 16 14 13 14 14 14 13 13 13 14 13 12 11 10 11 11 13 13 12 12 9 7 8 7 6 8 12 11 9 10 10 8 8 8 7 7 9 9 8 7 6 6 7 7 9 9 7 5
42 38 32 30 30 28 27 25 24 21 19 21 22 18 19 22 23 22 22 20 19 21 20 18 20 19 20 23 24 26 26 21 18 17 17 19 18 17 15 15 15 15 14 14 14 14 14 14 13 12 11 11 12 12 12 12 11 11 10 8 7 7 8 10 10 9 10 10 11 10 10 9 8 10 9 7 7 8 8 8 9 9 7 7 8
44 42 36 33 32 29 26 26 25 22 21 23 22 20 21 24 24 22 22 21 20 22 22 22 22 20 20 23 24 26 27 24 21 18 17 19 20 18 16 16 15 15 16 15 14 15 15 14 14 13 13 13 12 12 12 13 12 11 10 7 6 6 6 7 10 9 8 10 11 12 12 10 9 12 10 8 9 9 9 10 11 10 7 5 6
45 44 40 37 33 30 27 24 24 23 22 24 24 23 25 26 27 24 23 25 24 24 25 24 24 22 21 22 23 25 26 25 24 21 17 18 21 21 18 16 16 16 16 16 15 16 16 15 14 14 14 13 13 12 12 14 14 12 12 10 8 7 3 6 8 7 8 9 11 12 12 11 10 12 11 9 10 11 10 11 13 12 8 6 6
47 44 44 43 37 33 31 27 26 25 24 24 25 27 27 27 26 23 23 26 26 25 25 25 23 22 21 20 21 24 25 25 25 23 19 18 20 22 21 18 16 16 17 16 17 17 16 15 15 14 15 15 14 14 13 13 14 14 14 12 11 9 7 7 7 5 7 9 11 12 13 12 11 12 12 11 10 12 12 11 12 12 10 8 6
47 45 45 46 41 38 35 29 27 26 25 25 27 29 29 26 23 22 24 24 24 24 25 24 21 20 21 20 21 23 24 25 25 24 21 20 20 21 22 20 17 17 17 17 17 17 16 16 16 15 16 15 15 15 13 13 14 14 14 13 12 12 10 11 10 8 7 8 10 12 13 13 13 13 13 12 11 13 15 13 11 11 10 9 7
42 43 44 46 43 40 35 30 30 28 25 26 29 29 28 26 23 23 25 24 24 24 25 24 21 19 21 23 24 23 23 24 24 22 20 21 21 21 23 21 19 19 18 17 17 17 17 17 16 16 16 15 15 15 16 16 15 13 13 13 12 12 10 11 12 11 10 10 9 11 12 12 14 15 15 14 13 13 16 16 12 10 11 11 9
38 40 41 42 41 39 36 35 35 31 25 26 30 30 27 24 23 25 26 25 25 25 25 26 23 20 22 26 26 24 23 22 22 20 19 21 22 22 23 22 20 20 19 18 18 17 17 18 18 17 16 16 16 17 18 17 15 13 13 12 11 11 11 12 12 12 11 11 11 10 12 15 15 16 16 13 12 13 16 17 14 11 12 12 10
34 35 35 35 36 36 36 37 36 35 31 28 31 33 29 26 25 28 29 26 27 28 27 28 26 24 25 26 24 23 22 21 21 21 20 22 23 23 24 22 21 20 20 19 19 18 18 18 18 18 18 17 18 18 18 17 15 13 13 13 13 13 12 13 13 12 12 11 12 11 12 15 15 16 16 12 10 14 16 15 13 12 13 12 10
Wind_Direction
165 181 173 165 165 165 161 162 164 159 153 149 148 146 151 157 159 164 165 163 160 160 163 165 166 165 163 159 157 157 154 156 150 149 149 146 155 154 148 140 138 139 135 130 122 120 119 113 103 91 89 90 90 86 81 78 75 73 69 66 65 65 65 66 69 71 70 67 63 59 55 55 58 61 61 62 63 65 72 71 55 52 54 52 51
163 180 171 164 166 164 161 162 165 162 156 151 148 147 151 157 164 165 165 164 161 162 164 167 169 169 167 163 163 162 159 158 152 155 155 149 155 157 151 144 142 143 139 131 125 123 120 111 100 94 94 94 91 86 81 77 74 71 69 66 65 65 64 65 67 70 70 67 64 58 54 54 57 63 64 63 64 64 65 68 61 55 55 52 51
165 177 168 166 164 163 162 160 165 164 157 154 149 148 153 159 167 168 165 164 162 166 169 172 173 173 172 169 168 167 167 164 160 161 161 156 159 159 152 147 147 147 142 135 129 126 120 111 102 98 97 95 91 87 82 76 72 70 68 65 65 63 63 63 65 69 69 66 64 60 53 51 56 61 63 63 62 62 60 59 57 57 56 52 49
172 174 168 167 163 165 161 160 164 163 160 156 152 150 155 161 169 169 167 164 162 165 171 176 176 177 177 176 172 173 175 174 175 174 170 161 163 163 153 150 151 150 146 139 133 129 122 113 104 101 99 97 92 89 82 76 71 67 67 64 62 62 62 62 64 70 71 67 65 66 55 47 51 56 59 61 60 60 58 57 54 54 57 56 50
175 170 171 166 163 167 161 162 162 163 162 156 154 152 156 163 170 169 167 164 163 165 171 177 178 181 181 181 178 177 176 175 180 181 179 167 167 167 156 153 155 154 151 144 138 131 123 115 107 104 102 99 95 92 84 77 72 66 65 63 61 60 61 61 67 74 74 70 67 70 61 46 47 52 57 60 61 60 57 54 51 50 53 56 52
177 169 172 167 164 168 162 162 161 163 161 158 157 155 158 161 167 168 170 164 161 164 169 175 178 183 186 189 183 179 175 169 177 181 184 175 173 170 161 157 159 159 155 149 142 135 126 118 111 107 105 103 99 96 88 79 71 67 66 66 61 59 59 61 70 75 76 73 69 71 69 52 46 49 55 59 62 61 57 50 47 45 45 50 50
178 170 171 170 166 166 162 161 160 163 161 161 159 159 160 158 165 165 171 166 159 161 163 171 179 188 190 194 189 179 173 169 176 182 183 179 177 175 167 162 164 164 160 154 147 139 131 123 115 111 109 108 105 99 90 80 71 67 67 68 62 58 58 62 70 71 73 73 72 77 78 65 47 46 54 58 61 60 57 50 44 43 42 43 43
175 171 169 172 168 163 161 160 159 161 162 163 161 163 163 158 161 159 168 165 160 161 163 173 181 192 193 195 194 181 172 170 178 184 178 177 179 178 174 169 169 169 165 159 152 146 137 129 120 114 112 109 106 99 87 80 70 66 68 70 65 60 58 64 69 66 70 70 75 81 73 66 43 44 56 58 59 57 55 49 41 40 41 39 37
174 170 169 173 167 162 159 159 158 159 162 164 163 163 164 160 156 156 164 163 164 166 169 177 181 190 193 193 192 180 173 172 178 185 177 175 179 180 179 175 172 173 170 164 159 152 142 134 126 118 112 107 102 96 84 77 69 66 70 70 65 61 63 68 72 71 74 72 79 86 82 74 41 37 55 59 57 55 54 50 40 37 41 38 34
172 169 171 173 164 163 159 158 158 158 162 165 164 163 165 161 156 157 160 162 163 166 171 171 174 182 185 185 180 173 173 175 178 183 180 175 178 181 181 178 175 175 174 170 164 157 148 140 131 122 114 109 101 93 83 75 66 65 70 70 63 65 72 73 74 76 79 77 73 75 80 77 39 34 53 60 56 55 55 53 46 38 40 36 32
173 172 176 172 162 164 159 159 159 157 163 165 164 165 166 161 156 157 159 160 159 160 166 165 168 175 178 177 168 166 170 173 179 183 181 176 178 182 182 178 177 177 177 174 169 162 154 144 135 127 120 114 105 94 81 71 62 61 69 70 64 72 81 78 77 78 77 79 75 68 66 52 31 39 52 59 56 55 54 50 48 41 38 33 29
173 174 180 172 161 164 161 161 161 159 163 164 165 167 166 162 157 158 159 158 158 158 161 164 168 172 175 173 166 167 168 169 179 184 181 177 179 182 181 179 178 180 180 177 173 167 159 150 141 134 128 122 113 100 80 66 52 53 68 68 70 80 84 78 80 81 80 82 85 84 77 45 30 42 49 58 56 51 50 47 47 42 37 33 29
171 174 179 171 161 164 164 163 163 163 163 164 166 169 168 163 160 159 162 160 158 158 159 163 167 172 171 169 170 170 169 171 181 183 180 176 179 183 181 180 180 182 182 180 177 173 166 157 148 141 136 127 113 98 82 61 49 52 65 68 76 87 88 81 79 84 88 91 87 87 79 48 35 43 49 57 55 48 47 44 45 43 38 33 28
173 178 179 170 164 165 164 166 167 168 164 165 167 169 170 166 165 162 163 162 160 158 158 162 166 170 166 166 170 169 168 174 183 181 179 176 178 183 182 181 181 183 184 182 181 179 175 165 157 151 143 133 112 91 80 58 54 59 65 70 81 94 96 89 86 87 91 93 91 89 69 53 47 47 53 61 56 49 46 43 44 42 37 30 24
176 180 182 173 167 165 165 168 169 173 167 165 167 169 171 169 170 166 166 164 162 159 155 160 163 167 165 162 165 168 169 174 181 182 180 178 180 184 184 182 182 185 185 184 185 184 182 176 169 162 153 140 117 91 79 64 57 63 67 71 83 94 94 92 92 90 92 86 87 92 65 52 55 53 59 65 59 50 45 43 41 39 33 24 18
176 180 182 173 169 166 166 169 170 177 173 167 167 170 173 172 172 171 169 165 164 160 155 158 159 163 162 160 161 168 171 174 181 184 182 180 182 186 184 183 184 187 186 187 189 187 189 186 181 174 166 156 133 99 75 66 55 64 68 76 93 98 93 92 82 74 85 88 88 90 61 52 58 58 64 69 61 50 47 44 37 33 24 19 14
175 178 181 172 169 170 168 170 172 177 176 170 168 171 174 173 175 176 173 167 165 161 158 158 160 162 160 160 160 161 169 179 184 182 183 183 184 186 185 186 186 189 190 191 192 191 194 192 191 187 179 174 164 142 69 50 44 60 66 82 93 98 97 79 64 69 81 93 96 89 62 55 60 63 70 71 63 51 44 39 28 24 17 13 8
177 176 179 171 167 172 172 172 173 176 176 174 173 174 176 177 177 178 176 168 165 162 161 161 163 165 162 162 159 158 165 182 188 182 184 187 188 189 188 188 189 191 193 195 195 196 196 196 198 195 194 191 198 243 291 353 11 51 67 85 85 91 99 72 75 88 81 87 89 83 70 65 65 71 73 68 65 51 37 28 15 13 10 6 2
178 170 170 170 167 170 172 173 175 176 173 175 181 178 177 181 179 178 178 171 168 166 165 166 168 169 167 165 163 162 165 179 188 185 189 193 193 193 192 191 192 194 196 198 198 200 199 200 203 204 206 203 219 254 283 286 336 1 72 89 86 87 87 68 98 103 92 101 94 78 77 79 76 74 72 66 65 44 28 21 8 6 4 360 356
173 163 167 173 170 170 173 175 177 176 171 174 185 183 180 181 181 181 179 176 174 174 171 172 175 174 172 171 170 168 170 181 186 186 193 197 198 197 197 196 195 196 198 200 201 203 204 204 206 210 213 212 231 260 283 273 309 307 56 83 94 78 63 69 99 116 121 126 111 88 85 88 84 77 72 65 60 30 23 17 5 4 0 355 354
175 169 172 175 172 173 174 173 176 178 169 171 186 189 184 183 184 184 182 180 181 182 179 179 181 181 180 177 175 173 176 186 184 189 199 200 205 203 200 201 199 200 201 203 205 206 208 209 211 215 219 222 236 260 278 285 297 293 8 42 100 78 84 123 107 120 126 123 110 97 93 92 86 84 79 59 45 19 16 11 3 1 355 352 353
178 174 175 176 170 168 171 171 173 180 173 170 182 191 189 185 183 186 185 180 186 194 189 185 186 185 185 181 179 177 181 191 185 189 205 205 208 208 204 204 203 204 205 206 208 209 211 212 215 218 222 230 243 259 270 269 264 266 284 308 11 69 156 121 119 123 104 110 110 101 99 96 90 86 78 51 33 10 4 0 356 351 349 350 352
175 172 172 171 168 166 171 174 172 178 178 169 175 191 197 189 181 189 191 180 190 201 197 190 186 185 185 181 184 181 178 194 189 185 205 210 211 213 209 207 207 208 207 209 211 212 214 215 219 223 225 234 248 257 261 266 259 249 259 298 345 294 113 88 112 100 79 104 107 104 102 95 89 79 67 30 357 350 351 347 345 342 344 348 351
170 169 170 169 168 168 171 178 178 177 177 170 174 190 201 191 182 193 196 188 195 197 196 193 181 187 191 177 181 183 177 193 194 186 200 208 213 215 214 212 210 211 209 210 214 215 217 219 221 225 229 237 238 225 235 243 245 259 271 282 312 251 97 83 192 129 99 126 113 104 97 93 90 80 38 330 338 340 342 336 335 338 342 347 353
169 169 172 171 170 175 174 176 184 182 176 173 175 185 193 188 184 191 197 198 200 194 191 193 180 189 201 180 178 186 181 191 195 186 189 200 210 213 214 215 213 214 212 210 215 217 219 222 226 231 232 235 228 223 229 226 239 263 269 254 247 251 325 83 176 156 138 136 120 107 90 81 80 84 291 324 338 334 332 329 333 339 345 352 358
172 171 175 175 172 181 178 174 189 188 176 177 177 182 187 184 185 187 193 197 199 195 185 191 188 189 198 186 184 191 184 189 197 185 182 197 205 206 205 209 214 215 214 211 213 220 220 216 227 239 231 227 229 230 233 228 239 247 239 249 247 248 339 121 155 159 141 141 131 107 84 63 58 50 330 330 330 328 327 331 341 348 354 358 2
176 174 176 176 174 182 178 175 192 188 177 180 177 183 186 182 186 187 190 194 197 196 182 191 195 189 195 192 191 197 186 188 200 185 180 196 196 203 200 200 210 212 216 209 202 218 218 206 218 232 225 225 231 231 233 232 232 231 236 243 212 211 215 148 148 154 144 146 138 98 68 41 28 9 350 339 332 333 335 343 354 358 359 0 6
177 176 175 174 176 184 181 178 189 187 180 181 175 183 188 181 187 189 190 193 195 194 185 192 198 192 193 194 193 197 186 190 204 184 178 191 189 198 199 198 202 204 220 209 196 211 210 206 213 220 222 224 230 228 229 233 229 227 229 221 214 219 181 137 139 150 162 144 131 104 54 26 16 3 352 344 340 340 343 356 3 2 2 1 9
177 177 176 175 177 182 183 181 189 188 182 182 177 182 187 184 189 190 190 194 195 194 189 194 200 197 195 193 191 191 186 193 201 185 181 189 187 190 192 201 197 195 219 208 197 210 205 209 215 217 223 224 227 225 224 231 229 228 224 211 233 219 155 135 122 129 143 147 147 133 61 24 8 358 351 346 343 345 352 5 7 0 3 6 11
179 178 179 180 180 179 181 183 191 192 186 183 179 182 186 187 189 188 193 198 197 192 187 194 201 202 201 198 192 188 188 194 195 189 188 186 188 191 190 202 194 192 215 202 193 208 204 209 216 218 223 223 226 223 221 228 226 224 214 203 229 217 153 157 129 120 128 156 192 166 93 39 7 352 348 352 350 355 3 7 4 0 4 7 15
185 184 184 188 190 181 176 184 191 190 189 186 179 183 186 187 189 187 196 201 198 194 185 197 204 199 206 204 198 191 187 195 195 192 191 187 195 198 194 201 195 197 208 196 194 203 202 210 215 218 220 221 225 222 220 223 221 214 207 217 234 220 152 139 123 123 127 140 176 38 19 354 359 355 352 357 356 358 6 11 0 359 4 6 19
190 194 193 194 197 183 174 184 196 190 187 189 183 184 186 187 190 187 198 201 199 197 189 202 203 195 209 209 204 198 188 194 197 193 192 192 197 197 195 198 196 203 199 193 204 201 197 210 211 215 218 220 221 216 217 219 215 209 214 230 231 197 173 143 122 131 136 134 141 0 352 342 336 355 9 0 354 351 350 13 5 359 5 3 18
190 197 199 201 200 186 176 180 200 200 187 188 184 182 186 188 190 189 198 203 199 196 193 207 198 192 214 210 205 203 192 195 196 192 192 193 196 194 195 196 195 203 197 198 210 202 197 207 208 211 215 216 216 212 216 217 216 224 230 227 200 184 183 172 158 148 138 125 128 340 354 358 354 23 56 13 337 336 328 345 356 358 356 352 14
195 194 195 206 206 191 183 177 194 207 193 189 186 182 187 187 188 190 197 203 201 194 195 209 194 192 216 210 203 203 197 198 197 193 191 193 198 196 196 197 198 204 205 206 211 205 201 207 209 211 216 214 210 213 219 219 221 231 225 206 179 163 169 177 164 149 138 123 124 7 12 10 359 4 22 4 301 320 322 330 339 347 348 342 10
210 209 201 210 212 200 196 182 187 201 196 189 186 183 187 186 186 192 202 207 203 195 197 208 195 192 214 211 203 203 200 199 198 195 194 199 204 203 202 201 204 206 207 212 210 208 205 208 212 212 218 218 213 215 222 222 218 216 204 188 161 152 164 166 145 142 137 110 138 171 174 48 263 263 313 328 296 318 321 329 333 337 339 329 353
232 227 212 214 215 206 203 190 185 193 195 190 187 185 185 183 184 192 202 204 199 193 199 206 194 192 209 210 206 204 202 201 199 197 197 207 210 207 207 205 207 205 204 212 210 210 210 211 215 214 218 222 222 221 219 214 209 203 190 170 158 166 177 162 138 147 140 127 181 204 208 186 207 239 283 304 301 325 315 318 327 326 326 329 352
243 234 225 222 219 209 202 193 190 193 194 188 185 187 185 184 186 193 199 199 195 191 198 204 193 192 201 205 208 206 202 202 200 198 199 210 212 205 209 209 208 206 206 215 214 213 217 217 221 222 223 223 226 224 214 206 204 205 184 164 170 172 168 158 149 160 159 172 197 211 233 248 262 241 209 233 283 311 311 307 317 321 319 326 349
238 232 231 230 223 215 205 198 196 196 196 189 183 187 188 188 189 194 201 199 194 190 195 204 196 192 195 197 208 210 203 199 199 196 196 208 212 201 209 214 212 212 212 218 220 215 217 223 229 232 227 220 218 220 214 197 193 199 177 168 180 169 163 170 161 157 177 194 196 200 244 275 294 241 184 194 254 292 310 310 306 308 309 317 342
238 238 230 227 224 219 212 202 196 196 200 193 183 187 189 190 190 195 205 201 194 192 193 203 200 194 194 193 205 213 206 198 200 195 191 204 211 205 214 221 218 218 217 220 224 217 218 227 233 236 230 216 208 220 219 195 181 185 176 181 188 176 174 183 171 155 200 210 209 215 249 279 285 201 192 190 221 269 298 312 319 314 319 335 336
249 249 234 224 221 219 212 202 199 197 199 192 185 187 189 192 193 195 204 202 195 193 191 200 203 195 195 194 200 212 205 196 202 196 190 201 209 211 220 226 223 221 219 221 224 220 224 232 231 234 231 213 203 217 215 194 184 186 190 194 189 183 179 189 195 184 213 230 233 230 238 255 236 214 207 193 204 233 267 300 2 290 290 325 342
247 252 243 230 222 220 213 205 202 198 195 193 188 186 188 192 194 196 200 200 195 194 192 196 202 199 197 197 200 209 204 195 202 199 193 201 209 212 219 226 226 222 223 224 224 222 226 232 228 227 224 210 204 212 207 196 195 195 197 192 184 192 185 199 213 208 214 227 231 219 209 217 227 227 212 203 217 225 239 256 155 202 258 310 330
240 247 243 233 222 218 216 212 206 201 198 199 197 190 189 194 196 197 198 199 195 193 192 192 198 200 199 201 203 209 208 200 202 201 197 202 211 215 218 225 225 222 226 225 222 222 224 227 224 221 217 207 202 207 204 196 197 203 198 180 183 208 210 216 223 220 216 214 214 214 216 224 223 225 225 219 227 230 228 221 185 195 219 275 311
237 243 234 224 220 213 211 212 207 200 194 201 207 198 190 194 197 198 196 197 196 192 191 193 198 199 200 204 207 212 212 205 204 205 201 202 211 217 219 225 224 222 227 225 220 222 225 228 224 218 215 209 207 210 202 191 192 198 189 179 188 204 218 228 225 216 218 214 210 214 224 232 215 218 234 230 220 212 210 214 205 210 210 203 237
230 236 228 220 222 214 209 211 207 201 195 200 209 199 189 194 198 200 196 194 195 192 189 193 201 201 200 204 208 214 215 208 204 208 207 206 210 217 220 224 224 222 226 227 222 222 225 227 224 219 215 210 211 215 206 198 198 195 187 185 191 202 230 234 215 209 219 216 215 219 225 227 210 214 228 221 213 206 201 212 219 230 236 206 203
224 230 229 223 222 220 219 215 205 201 201 203 206 194 186 190 194 197 196 193 195 194 189 192 199 200 201 205 207 214 216 210 206 208 210 210 211 216 220 224 226 224 228 229 223 222 225 226 223 221 218 212 210 216 215 210 210 204 197 189 185 215 246 212 192 208 220 217 222 227 234 235 210 210 226 219 211 214 205 211 230 245 249 227 220
222 228 232 230 225 226 230 222 207 202 204 206 206 194 188 193 194 193 194 193 193 195 192 191 196 198 202 207 205 210 214 211 211 211 209 212 213 216 220 224 228 227 230 230 223 222 225 226 225 221 221 218 210 214 218 215 215 213 209 202 195 209 198 155 178 211 214 216 224 226 235 242 219 209 222 220 210 218 213 212 237 256 258 241 229
222 225 231 233 229 229 231 223 209 203 203 205 204 198 197 202 200 193 193 196 194 195 196 193 195 198 201 206 204 206 210 211 213 211 209 215 215 216 221 224 227 230 230 227 224 225 225 225 225 221 220 219 212 212 217 216 216 216 216 215 210 211 204 192 202 211 204 213 220 221 227 232 228 218 218 223 219 218 216 215 233 252 258 254 241
225 224 228 232 231 229 228 221 214 208 203 204 204 204 207 210 207 195 192 199 199 197 198 195 195 198 199 203 203 203 208 211 213 211 210 219 218 215 220 223 223 227 229 224 224 227 224 223 224 221 218 218 215 213 213 216 218 218 221 222 219 223 229 227 228 233 237 236 223 217 220 222 226 227 221 221 223 221 223 225 229 236 241 242 243
229 227 227 229 229 227 225 225 229 222 205 202 207 210 212 213 212 204 196 199 201 198 199 198 196 198 198 201 203 203 207 210 212 210 210 217 219 216 218 222 221 223 225 224 225 228 224 223 222 220 218 215 215 215 213 217 220 218 221 224 224 226 232 237 241 245 250 255 241 212 206 212 224 239 241 227 220 221 229 237 234 223 226 230 228
230 231 229 228 228 225 223 225 233 230 210 207 218 220 217 212 212 214 207 200 199 196 198 201 199 197 197 203 207 205 205 211 210 207 210 213 216 218 219 221 222 223 224 222 225 228 225 223 221 220 218 213 215 218 216 219 221 217 218 221 221 220 222 229 234 238 238 247 251 227 210 215 227 244 249 235 220 215 227 243 241 219 221 229 227
227 230 228 229 229 226 226 224 225 228 226 225 229 228 222 215 214 219 218 208 200 196 197 202 200 196 198 203 207 205 203 209 210 206 210 213 215 219 220 221 223 224 224 222 224 226 224 222 219 219 219 216 219 221 219 222 222 220 219 217 215 215 217 221 224 230 232 233 242 243 230 225 230 237 237 235 228 217 224 237 233 218 217 223 227